Home > Weather > Haarlem > Past weeks

Flag for Netherlands Past Weather in Haarlem, Netherlands — Yesterday and Last 2 Weeks

Now
63 °F

Passing clouds.


Feels Like: 63 °F
Forecast: 57 / 62 °F
Wind: 16 mph from Southwest

Location: Amsterdam Schiphol Airport

Current Time: Jul 1, 2016 at 4:52:52 AM

Latest Report: Jul 1, 2016 at 4:25 AM


Visibility: N/A

Pressure: 29.80 "Hg

Humidity: 83%

Dew Point: 57 °F

Location of HaarlemLocation

Past Weather in Haarlem — Graph

°F

Haarlem Temperature Yesterday

Maximum temperature yesterday: 66 °F (at 4:55 PM)
Minimum temperature yesterday: 57 °F (at 4:25 AM)
Average temperature yesterday: 61 °F

High & Low Weather Summary for the Past Weeks

 TemperatureHumidityPressure
High81 °F (Jun 23, 4:55 PM)100% (Jun 16, 3:25 AM)30.24 "Hg (Jun 16, 3:25 AM)
Low50 °F (Jun 28, 4:25 AM)56% (Jun 16, 11:25 AM)29.56 "Hg (Jun 16, 3:25 AM)
Average62 °F83%29.95 "Hg
* Reported Jun 16 3:25 AM — Jul 1 3:55 AM, Haarlem, Weather by CustomWeather, © 2016

Note: Actual official high and low records may vary slightly from our data, if they occured in-between our weather recording intervals... More about our weather records

Advertising

Haarlem Weather History for the Previous 24 Hours

Scroll right to see more
 ConditionsComfort  
Time TempWeatherWind HumidityBarometerVisibility
3:55 AM
Fri, Jul 1
63 °FPassing clouds.17 mph83%29.80 "HgN/A
3:25 AM63 °FPassing clouds.17 mph83%29.80 "HgN/A
2:55 AM61 °FPassing clouds.16 mph88%29.80 "HgN/A
2:25 AM61 °FPassing clouds.15 mph83%29.83 "HgN/A
1:55 AM61 °FPassing clouds.14 mph83%29.83 "HgN/A
1:25 AM61 °FPassing clouds.12 mph88%29.83 "HgN/A
12:55 AM61 °FPassing clouds.12 mph88%29.83 "HgN/A
12:25 AM61 °FPassing clouds.13 mph88%29.86 "HgN/A
11:55 PM
Thu, Jun 30
59 °FPassing clouds.9 mph94%29.86 "HgN/A
11:25 PM59 °FPassing clouds.5 mph88%29.86 "HgN/A
10:55 PM61 °FPassing clouds.5 mph88%29.86 "HgN/A
10:25 PM61 °FPassing clouds.7 mph88%29.86 "HgN/A
9:55 PM61 °FPassing clouds.8 mph88%29.86 "HgN/A
9:25 PM63 °FPassing clouds.9 mph83%29.86 "HgN/A
8:55 PM61 °FPassing clouds.12 mph88%29.86 "HgN/A
8:25 PM63 °FPassing clouds.14 mph77%29.86 "HgN/A
7:55 PM63 °FPassing clouds.14 mph83%29.83 "HgN/A
7:25 PM63 °FPassing clouds.14 mph83%29.83 "HgN/A
6:55 PM64 °FScattered clouds.14 mph83%29.83 "HgN/A
6:25 PM64 °FScattered clouds.16 mph83%29.83 "HgN/A
5:55 PM64 °FScattered clouds.16 mph88%29.83 "HgN/A
5:25 PM64 °FScattered clouds.16 mph83%29.83 "HgN/A
4:55 PM66 °FScattered clouds.14 mph83%29.83 "HgN/A
4:25 PM63 °FBroken clouds.14 mph94%29.83 "HgN/A
3:55 PM63 °FDrizzle. Partly sunny.14 mph94%29.83 "Hg2 mi
3:25 PM63 °FBroken clouds.15 mph94%29.83 "HgN/A
2:55 PM63 °FDrizzle. Partly sunny.12 mph94%29.83 "HgN/A
2:25 PM63 °FDrizzle. Partly sunny.15 mph88%29.83 "Hg6 mi
1:55 PM63 °FDrizzle. Broken clouds.12 mph94%29.83 "HgN/A
1:25 PM63 °FDrizzle. More clouds than sun.14 mph88%29.83 "HgN/A
12:55 PM61 °FMostly cloudy.10 mph94%29.83 "HgN/A
12:25 PM61 °FDrizzle. Mostly cloudy.12 mph94%29.83 "Hg3 mi
11:55 AM61 °FDrizzle. Partly sunny.10 mph94%29.83 "HgN/A
11:25 AM61 °FBroken clouds.14 mph88%29.83 "HgN/A
10:55 AM61 °FDrizzle. Partly sunny.12 mph88%29.83 "HgN/A
10:25 AM63 °FDrizzle. Broken clouds.14 mph88%29.83 "HgN/A
9:55 AM61 °FBroken clouds.13 mph94%29.83 "HgN/A
9:25 AM61 °FDrizzle. Broken clouds.10 mph88%29.80 "HgN/A
8:55 AM59 °FDrizzle. Broken clouds.12 mph94%29.80 "HgN/A
8:25 AM59 °FDrizzle. Broken clouds.13 mph94%29.80 "HgN/A
7:55 AM59 °FDrizzle. Partly sunny.10 mph94%29.80 "HgN/A
7:25 AM59 °FScattered clouds.12 mph94%29.80 "HgN/A
6:55 AM59 °FPartly sunny.9 mph94%29.80 "HgN/A
6:25 AM59 °FLight rain. Broken clouds.10 mph94%29.77 "HgN/A
5:55 AM59 °FLight rain. Passing clouds.10 mph94%29.77 "HgN/A
5:25 AM59 °FLight rain. Partly cloudy.12 mph94%29.77 "Hg6 mi
4:55 AM59 °FLight rain. Partly cloudy.10 mph94%29.77 "Hg6 mi
4:25 AM57 °FPartly cloudy.7 mph100%29.77 "Hg2 mi
Weather by CustomWeather, © 2016

See weather overviewHow to use our weather pages